AO-07 1 07530U 74089B 25268.28255448 -.00000031 00000-0 94083-4 0 9997 2 07530 101.9985 273.7094 0011911 277.3100 94.0569 12.53691883327321 UO-11 1 14781U 84021B 25267.61374869 .00002865 00000-0 30487-3 0 9998 2 14781 97.7676 231.9508 0007518 355.5357 4.5793 14.89711301217572 AO-27 1 22825U 93061C 25268.11980925 .00000264 00000-0 11769-3 0 9995 2 22825 98.7257 330.1566 0008932 151.7602 208.4066 14.30832938669094 FO-29 1 24278U 96046B 25268.25525200 .00000042 00000-0 75692-4 0 9991 2 24278 98.5565 147.8955 0350853 63.6427 300.0292 13.53254484437339 NOAA-15 1 25338U 98030A 25268.30076559 .00000330 00000-0 15298-3 0 9993 2 25338 98.5310 290.8190 0011096 48.4455 311.7676 14.27021766423517 GO-32 1 25397U 98043D 25267.82009527 .00000188 00000-0 10134-3 0 9994 2 25397 98.9830 249.2381 0000263 239.3994 120.7158 14.24342030413559 ISS 1 25544U 98067A 25268.18031108 .00023151 00000-0 40291-3 0 9996 2 25544 51.6335 171.4428 0004262 17.1558 342.9575 15.50657957530679 NO-44 1 26931U 01043C 25268.08290021 .00000442 00000-0 19624-3 0 9999 2 26931 67.0505 209.8757 0007112 274.7535 85.2755 14.31785831252493 SO-50 1 27607U 02058C 25268.20060558 .00004234 00000-0 53055-3 0 9990 2 27607 64.5533 228.2541 0067069 311.5477 47.9887 14.81942798225173 CO-55 1 27844U 03031E 25267.97116093 .00000641 00000-0 29796-3 0 9997 2 27844 98.6788 274.8773 0008639 231.8238 128.2163 14.24077436153925 CO-57 1 27848U 03031J 25267.97011275 .00000536 00000-0 25523-3 0 9994 2 27848 98.6819 274.8001 0008389 251.7168 108.3098 14.23400610153641 RS-22 1 27939U 03042A 25268.31611409 .00002739 00000-0 43801-3 0 9997 2 27939 98.3375 80.4526 0012012 33.6829 64.7687 14.72620953176550 CO-58 1 28895U 05043F 25267.36743871 .00003662 00000-0 59914-3 0 9993 2 28895 98.2655 53.1670 0013797 332.5677 27.4799 14.71384603 62644 CO-65 1 32785U 08021C 25268.18668058 .00010209 00000-0 71200-3 0 9996 2 32785 97.7988 240.2899 0008679 194.5469 165.5509 15.05562772945264 CO-66 1 32791U 08021J 25267.88419471 .00025886 00000-0 11517-2 0 9993 2 32791 97.7382 250.5678 0005463 128.9520 231.2203 15.21452663946791 RS-30 1 32953U 08025A 25268.24381211 .00000032 00000-0 15800-3 0 9994 2 32953 82.5061 160.2422 0018935 167.4606 192.6949 12.43168274786772 NOAA-19 1 33591U 09005A 25268.16012975 .00000218 00000-0 13998-3 0 9993 2 33591 98.9871 333.4183 0014627 62.3679 297.8977 14.13410653857044 SRMSAT 1 37841U 11058D 25268.20765970 .00000592 00000-0 17773-3 0 9991 2 37841 19.9710 223.2332 0011856 168.0231 312.3858 14.11468964720330 ZACUBE-1 1 39417U 13066B 25267.86051887 .00010388 00000-0 87386-3 0 9990 2 39417 97.7912 224.4286 0044871 54.5211 306.0186 14.97656765640966 Delfi-N3xt 1 39428U 13066N 25266.33775729 .00019587 00000-0 19156-2 0 9990 2 39428 97.8292 182.8583 0083334 13.4301 346.9107 14.89756796634817 GOMX-1 1 39430U 13066Q 25268.26131918 .00004204 00000-0 65133-3 0 9990 2 39430 97.6700 120.2849 0130761 207.1258 152.3076 14.68054563631027 LO-74 1 39440U 13066AA 25267.76862009 .00006232 00000-0 61800-3 0 9997 2 39440 97.8568 211.6772 0060721 184.5497 175.5177 14.90758797637405 AO-73 1 39444U 13066AE 25267.86763790 .00016221 00000-0 11593-2 0 9991 2 39444 97.7928 230.3489 0041772 26.9924 333.3462 15.03845517639708 DTUSAT-2 1 40030U 14033W 25267.98588848 .00013375 00000-0 83112-3 0 9995 2 40030 98.0674 245.1687 0010916 64.1422 296.0930 15.09748894612599 EO-80 1 40032U 14033Y 25267.86790667 .00014424 00000-0 89402-3 0 9992 2 40032 98.0559 244.5499 0008615 14.2535 345.8934 15.09841405612556 LILACSAT-2 1 40908U 15049K 25268.33717510 .00021384 00000-0 51071-3 0 9995 2 40908 97.5013 291.4456 0010501 126.6724 233.5489 15.41485501554815 IO-86 1 40931U 15052B 25151.18580175 .00001241 00000-0 78118-4 0 9996 2 40931 6.0006 24.0987 0012733 338.8432 21.1169 14.78805930523159 Horyu-4 1 41340U 16012D 25267.86768174 .00048536 00000-0 10881-2 0 9997 2 41340 30.9940 127.9742 0004776 86.8256 273.2937 15.42148451529330 Lapan A3 1 41603U 16040E 25268.26890258 .00007283 00000-0 24819-3 0 9995 2 41603 97.1422 268.7267 0009008 239.1105 120.9252 15.30624593514253 CAS-2T 1 41847U 16066G 25268.25173621 .00003195 00000-0 46165-3 0 9996 2 41847 98.4112 341.7529 0344586 212.5139 145.4408 14.43755085466559 CAS-4B 1 42759U 17034B 25267.82647575 .00375760 59543-4 12533-2 0 9992 2 42759 43.0001 34.0704 0023624 333.2265 26.7389 15.88944295459486 CAS-4A 1 42761U 17034D 25268.33892315 .00507089 11069-3 12657-2 0 9994 2 42761 43.0027 25.9686 0023704 343.4252 16.5848 15.94429171459602 TechnoSat 1 42829U 17042E 25267.96653304 .00005993 00000-0 45508-3 0 9998 2 42829 97.4008 71.6478 0016469 280.5725 79.3645 15.02432671446844 AO-91 1 43017U 17073E 25268.19579363 .00015630 00000-0 76818-3 0 9997 2 43017 97.5049 136.2732 0167951 159.0097 201.8134 15.06508517425407 S-Net D 1 43186U 18014G 25268.21794684 .00010465 00000-0 59731-3 0 9994 2 43186 97.5491 170.0234 0007838 203.7916 156.2954 15.12901090418643 S-Net B 1 43187U 18014H 25267.96022014 .00009843 00000-0 56247-3 0 9994 2 43187 97.5495 169.7452 0008660 200.2043 159.8847 15.12872957418607 S-Net A 1 43188U 18014J 25268.21795066 .00010523 00000-0 60045-3 0 9996 2 43188 97.5506 170.1652 0008596 200.0581 160.0313 15.12906586418644 S-Net C 1 43189U 18014K 25268.22745471 .00009760 00000-0 55754-3 0 9995 2 43189 97.5518 170.2067 0010248 193.6423 166.4533 15.12873747417193 Ten-Koh 1 43677U 18084G 25268.20504760 .00004985 00000-0 39452-3 0 9997 2 43677 98.0789 84.7289 0006581 254.6313 105.4183 15.01081211376381 PO-101 1 43678U 18084H 25268.29244160 .00004519 00000-0 37977-3 0 9995 2 43678 98.1070 88.6057 0008155 289.0103 71.0234 14.98814587376515 QO-100 1 43700U 18090A 25268.22426847 .00000147 00000-0 00000-0 0 9992 2 43700 0.0200 159.3469 0001368 55.6195 255.8717 1.00272924 25025 MinXSS-2 1 43758U 18099A 25267.78133379 .00031453 00000-0 11049-2 0 9990 2 43758 97.4907 334.3438 0012164 135.4309 224.7912 15.29260419373337 AO-95 1 43770U 18099N 25268.15367048 .00018095 00000-0 86026-3 0 9993 2 43770 97.4800 325.1182 0010156 189.1907 170.9144 15.19210025372870 SNUSat 2 1 43782U 18099AA 25268.11147546 .00014431 00000-0 74850-3 0 9993 2 43782 97.4473 320.9253 0012873 136.8108 223.4136 15.16183550372785 SnugLite 1 43784U 18099AC 25268.09403517 .00019092 00000-0 89894-3 0 9997 2 43784 97.4293 320.7124 0004689 129.3836 230.7815 15.19567252372955 ITASat 1 1 43786U 18099AE 25268.11059481 .00012286 00000-0 67266-3 0 9996 2 43786 97.4444 320.1037 0013917 188.7156 171.3836 15.14290789372721 EAGLET 1 1 43790U 18099AJ 25268.14055377 .00008309 00000-0 51479-3 0 9994 2 43790 97.4648 319.7060 0012124 172.2182 187.9238 15.09956158372292 ESEO 1 43792U 18099AL 25268.06944528 .00004243 00000-0 31903-3 0 9995 2 43792 97.4368 311.4277 0012967 153.6035 206.5854 15.03006627371963 JO-97 1 43803U 18099AX 25268.14788507 .00023286 00000-0 97979-3 0 9993 2 43803 97.4542 326.3679 0008571 124.6887 235.5159 15.23353721373133 Suomi 100 1 43804U 18099AY 25268.15090689 .00020267 00000-0 92729-3 0 9996 2 43804 97.4608 325.3317 0013239 129.7053 230.5352 15.20477065373037 ISAT 1 43879U 18111D 25268.27627124 .00043398 00000-0 12935-2 0 9996 2 43879 97.5872 185.3126 0008732 155.7877 204.3777 15.34505048370181 UWE-4 1 43880U 18111E 25267.72211970 .00030365 00000-0 10666-2 0 9994 2 43880 97.5816 182.3947 0010754 179.2692 180.8566 15.29286048369982 Sparrow 1 43881U 18111F 25267.83655563 .00045805 00000-0 13003-2 0 9990 2 43881 97.6042 188.1909 0005208 183.9004 176.2199 15.36049721370227 Prox-1 1 44339U 19036A 25268.15598244 .00020772 00000-0 25056-2 0 9991 2 44339 23.9969 74.0458 0006062 220.7158 139.2887 14.82255242333989 Taurus 1 1 44530U 19059C 25268.26206256 .00013926 00000-0 24761-2 0 9995 2 44530 98.6193 52.9323 0009263 64.4445 295.7715 14.67223824319722 Duchifat 3 1 44854U 19089C 25267.71011243 .00140257 00000-0 17270-2 0 9991 2 44854 36.9388 28.9567 0005955 74.0853 286.0564 15.58831092319660 TO-108 1 44881U 19093C 25268.25217025 .00001882 00000-0 22224-3 0 9998 2 44881 97.7840 341.6186 0012555 234.5180 125.4865 14.85817952312065 FloripaSat 1 1 44885U 19093G 25268.28720310 .00011089 00000-0 90271-3 0 9998 2 44885 97.8144 356.1743 0009298 206.6543 153.4203 14.99666338312882 RS-44 1 44909U 19096E 25268.20911017 .00000043 00000-0 12450-3 0 9997 2 44909 82.5241 155.7922 0218342 44.0909 317.7371 12.79743837268452 UPMSat 2 1 46276U 20061E 25268.21416197 .00463780 90906-4 10827-2 0 9994 2 46276 97.2290 347.6978 0003742 238.2111 121.8802 15.97005876282444 SALSAT 1 46495U 20068K 25267.54795139 .00013051 00000-0 53577-3 0 9999 2 46495 97.8720 250.6937 0012298 141.9505 218.2602 15.24293404274819 TUBIN 1 48900U 21059X 25268.30775609 .00110839 00000-0 83356-3 0 9998 2 48900 97.6769 87.1601 0002783 192.7858 167.3334 15.72213646236892 LEDSAT 1 49069U 21073D 25268.15578223 .00440017 00000-0 16159-2 0 9997 2 49069 97.3740 355.6373 0002757 328.4122 31.6983 15.87225782228318 CUTE 1 49263U 21088D 25268.28292067 .00031133 00000-0 51431-3 0 9990 2 49263 97.4415 347.9923 0006324 185.1751 174.9437 15.52173067221104 TeikyoSat 4 1 49396U 21102B 25268.12368773 .00004561 00000-0 29910-3 0 9997 2 49396 97.4004 302.6493 0013750 121.4084 238.8491 15.08086539212757 Z-Sat 1 49399U 21102E 25268.15922895 .00007870 00000-0 41918-3 0 9992 2 49399 97.3701 306.4694 0019556 91.3353 269.0121 15.15309259213260 KOSEN 1 1 49402U 21102H 25268.04192744 .00012781 00000-0 56435-3 0 9994 2 49402 97.3596 310.6141 0016894 66.3774 293.9234 15.21744685213626 HO-113 1 50466U 21131B 25268.32753116 .00001283 00000-0 41348-3 0 9997 2 50466 98.5080 357.1461 0004590 159.7717 200.3655 14.40941143196968 SNUGLITE 2 1 52899U 22065F 25268.32241223 .00002930 00000-0 57449-3 0 9996 2 52899 98.1849 49.3555 0008474 130.6428 229.5512 14.63481978172245 UmKA 1 (RS40S) 1 57172U 23091G 25268.26822309 .00010631 00000-0 54644-3 0 9999 2 57172 97.5462 323.1060 0012862 327.1798 32.8635 15.16584547123793 CubeBel-2 (EU11S) 1 57175U 23091K 25268.25565417 .00017336 00000-0 77502-3 0 9992 2 57175 97.5459 324.9494 0010560 332.9435 27.1249 15.21337329123919 ENSO 1 58470U 23185J 25265.87349204 .00212868 00000-0 15756-2 0 9993 2 58470 97.3609 345.3295 0002510 57.5685 302.5821 15.72293598101470 SONATE-2 1 59112U 24043Q 25267.36813307 .00035295 00000-0 89510-3 0 9994 2 59112 97.5273 41.0340 0010859 93.3457 266.9031 15.39553525 86744 MO-122 1 60209U 24125G 25268.13030981 .00037532 00000-0 92875-3 0 9993 2 60209 97.2653 118.7536 0018624 108.1879 252.1397 15.40166181 68485 GRBBeta 1 60237U 24128C 25267.77764657 .00009226 00000-0 66275-3 0 9994 2 60237 61.9916 65.5474 0056795 80.4902 280.2602 15.03589382 66318 Curium One 1 60242U 24128H 25267.15171371 .00016734 00000-0 10903-2 0 9995 2 60242 61.9808 64.2925 0056603 77.0552 283.6854 15.06762571 66280 ROBUSTA-3A 1 60243U 24128J 25267.78727154 .00014535 00000-0 96398-3 0 9991 2 60243 61.9885 63.2702 0056247 74.7187 286.0114 15.06217281 66368 CatSat 1 60246U 24125J 25267.57314607 .00036831 00000-0 10955-2 0 9990 2 60246 97.2471 116.1447 0040972 73.3240 287.2495 15.33794243 66364 HYPERVIEW-1G (RS66S) 1 61772U 24199AP 25268.31931483 .00042828 00000-0 10586-2 0 9999 2 61772 97.3339 137.1777 0012955 155.9441 204.2413 15.40266723 93513 AO-123 1 61781U 24199AY 25268.30050881 .00013160 00000-0 45602-3 0 9997 2 61781 97.3363 134.6854 0015588 168.6262 191.5334 15.29843500 93347 ZIMSAT 2 1 61783U 24199BA 25268.27083450 .00094932 00000-0 16677-2 0 9998 2 61783 97.3285 138.8418 0012182 146.2583 213.9447 15.50094720 96779 HADES-R (SO-124) 1 62690U 25009CK 25268.19053234 .00097226 00000-0 25548-2 0 9991 2 62690 97.4002 349.1185 0001938 100.8917 259.2546 15.38224693 38631 HYDRA-T 1 62692U 25009CM 25268.15095695 .00099302 00000-0 25666-2 0 9994 2 62692 97.4008 349.1715 0001624 94.0653 266.0778 15.38726140 38638 JINJUSat 1B 1 63210U 25052A 25267.18845402 .00023959 00000-0 10166-2 0 9994 2 63210 97.4250 160.0344 0002696 343.6916 16.4233 15.23093421 29464 NUSHSAT 1 1 63211U 25052B 25268.27528484 .00027216 00000-0 11342-2 0 9991 2 63211 97.4234 161.1524 0002721 347.9683 12.1488 15.23677150 29637 TEVEL2-4 1 63213U 25052D 25268.24800696 .00025523 00000-0 10778-2 0 9999 2 63213 97.4156 160.8274 0002922 17.0933 343.0402 15.23241981 29626 TEVEL2-5 1 63214U 25052E 25268.25058633 .00026022 00000-0 11000-2 0 9991 2 63214 97.4155 160.8246 0002905 16.3076 343.8253 15.23204319 29622 TEVEL2-6 1 63215U 25052F 25268.25556461 .00025652 00000-0 10858-2 0 9992 2 63215 97.4153 160.8210 0002985 15.6776 344.4553 15.23160736 29623 TEVEL2-1 1 63217U 25052H 25266.18058536 .00027481 00000-0 11752-2 0 9990 2 63217 97.4135 158.6458 0004046 29.1921 330.9541 15.22795081 29304 TEVEL2-3 1 63218U 25052J 25266.96911112 .00027604 00000-0 11786-2 0 9999 2 63218 97.4136 159.4267 0003975 28.7525 331.3930 15.22846330 29422 TEVEL2-2 1 63219U 25052K 25268.21828301 .00023998 00000-0 10241-2 0 9994 2 63219 97.4129 160.6567 0003712 25.2479 334.8939 15.22894236 29617 TEVEL2-9 1 63237U 25052AD 25267.12260717 .00026331 00000-0 11682-2 0 9998 2 63237 97.4197 159.3829 0008225 19.5986 340.5565 15.21525963 29426 TEVEL2-7 1 63238U 25052AE 25268.24819645 .00023771 00000-0 10566-2 0 9998 2 63238 97.4196 160.4794 0008195 16.3203 343.8295 15.21483740 29593 TEVEL2-8 1 63239U 25052AF 25267.46316501 .00023579 00000-0 10502-2 0 9991 2 63239 97.4196 159.6943 0008319 18.8000 341.3542 15.21415764 29476 HYDRA-W 1 63490U 25052BL 25267.43857252 .00062476 00000-0 21668-2 0 9994 2 63490 97.4140 160.8072 0010494 14.5853 345.5688 15.29522964 29552 HADES-ICM (SO-125) 1 63492U 25052BN 25266.64438626 .00063013 00000-0 22500-2 0 9992 2 63492 97.4152 159.8990 0011181 19.3064 340.8597 15.28561245 29422 /EX
